EW5523 Weather Reports


time (UTC)temp
C
wind
direction
speed
KPH
gust
KPH
rain 1hr
cm
rain 24hr
cm
rain mn
cm
humidity
%
barometer
mb
20260906044606 15 172 0.0 9.7 0.00 0.00 0.00 95 1002.4
20260906043057 15 257 0.0 8.0 0.00 0.00 0.00 95 1002.5
20260906041556 15 189 0.0 6.4 0.00 0.00 0.00 95 1002.6
20260906040134 15 139 0.0 14.5 0.00 0.00 0.00 94 1002.6
20260906034604 15 142 0.0 9.7 0.00 0.00 0.00 93 1002.4
20260906033105 15 224 0.0 3.2 0.00 0.00 0.00 92 1002.6
20260906031554 15 186 0.0 6.4 0.00 0.00 0.00 92 1002.4
20260906030057 15 153 0.0 8.0 0.00 0.00 0.00 91 1002.4
20260906024607 15 182 0.0 11.3 0.00 0.00 0.00 92 1002.3
20260906023101 15 174 0.0 11.3 0.00 0.00 0.00 92 1002.3
20260906021550 15 164 0.0 11.3 0.00 0.00 0.00 92 1002.5
20260906020050 15 164 1.6 11.3 0.00 0.00 0.00 93 1002.5
20260906014549 14 171 0.0 9.7 0.00 0.00 0.00 94 1002.6
20260906013048 14 173 0.0 8.0 0.00 0.00 0.00 94 1002.7
20260906011548 14 166 0.0 6.4 0.00 0.00 0.00 95 1002.7
20260906010047 14 180 1.6 11.3 0.00 0.00 0.00 95 1002.7
20260906004546 14 120 0.0 9.7 0.00 0.00 0.00 95 1002.8
20260906003045 14 154 0.0 8.0 0.00 0.00 0.00 95 1003.0
20260906001543 14 170 1.6 12.9 0.00 0.00 0.00 95 1003.2
20260906000042 14 177 0.0 8.0 0.00 0.00 0.00 94 1003.5
20260905234540 14 137 0.0 8.0 0.00 0.00 0.00 94 1003.7
20260905233044 14 163 0.0 4.8 0.00 0.00 0.00 94 1003.8
20260905231538 14 162 0.0 6.4 0.00 0.00 0.00 94 1003.9
20260905230037 14 155 0.0 0.0 0.00 0.00 0.00 94 1004.0
20260905224606 14 160 0.0 3.2 0.00 0.00 0.00 94 1004.1
20260905223037 14 146 0.0 1.6 0.00 0.00 0.00 93 1004.4
20260905221533 14 143 0.0 0.0 0.00 0.00 0.00 93 1004.4
20260905220033 14 160 0.0 0.0 0.00 0.00 0.00 93 1004.7
20260905214536 14 161 0.0 0.0 0.00 0.00 0.00 93 1004.8
20260905213032 14 206 0.0 0.0 0.00 0.00 0.00 92 1005.0
20260905211541 14 206 0.0 0.0 0.00 0.00 0.00 91 1005.2
20260905210039 15 206 0.0 0.0 0.00 0.00 0.00 90 1005.2
20260905204525 15 227 0.0 0.0 0.00 0.00 0.00 89 1005.7
20260905203026 15 287 0.0 6.4 0.00 0.00 0.00 86 1005.6
20260905201522 16 274 3.2 17.7 0.00 0.00 0.00 82 1005.9
20260905200022 17 197 0.0 1.6 0.00 0.00 0.00 72 1004.5
20260905194518 17 156 0.0 0.0 0.00 0.00 0.00 71 1004.1
20260905193012 17 152 0.0 0.0 0.00 0.00 0.00 70 1004.3
20260905191511 17 148 0.0 0.0 0.00 0.00 0.00 69 1004.6
20260905190009 17 124 0.0 0.0 0.00 0.00 0.00 68 1004.8
20260905184515 17 166 0.0 0.0 0.00 0.00 0.00 68 1005.1
20260905183004 17 179 0.0 0.0 0.00 0.00 0.00 68 1005.4
20260905181502 17 152 0.0 4.8 0.00 0.00 0.00 67 1005.5
20260905180001 17 155 0.0 0.0 0.00 0.00 0.00 67 1005.7
20260905174600 17 147 0.0 3.2 0.00 0.00 0.00 67 1005.8
20260905173121 18 149 0.0 1.6 0.00 0.00 0.00 66 1006.0
20260905171557 18 153 0.0 0.0 0.00 0.00 0.00 65 1006.1
20260905170109 18 141 0.0 0.0 0.00 0.00 0.00 65 1006.1
20260905164603 18 141 0.0 0.0 0.00 0.00 0.00 65 1006.3
20260905163053 18 156 0.0 1.6 0.00 0.00 0.00 64 1006.4
20260905161605 18 139 0.0 1.6 0.00 0.00 0.00 64 1006.5
20260905160051 18 164 0.0 3.2 0.00 0.00 0.00 64 1006.6
20260905154552 18 153 0.0 1.6 0.00 0.00 0.00 65 1006.7
20260905153050 19 162 0.0 1.6 0.00 0.00 0.00 65 1006.7
20260905151550 19 163 0.0 1.6 0.00 0.00 0.00 64 1006.6
20260905150052 20 162 0.0 0.0 0.00 0.00 0.00 65 1006.6
20260905144549 20 160 0.0 1.6 0.00 0.00 0.00 64 1006.6
20260905143048 20 163 0.0 0.0 0.00 0.00 0.00 62 1006.6
20260905141547 21 163 0.0 0.0 0.00 0.00 0.00 61 1006.7
20260905140045 21 164 0.0 0.0 0.00 0.00 0.00 59 1006.8
20260905134544 22 201 0.0 0.0 0.00 0.00 0.00 58 1007.0
20260905133043 22 147 0.0 1.6 0.00 0.00 0.00 55 1007.0
20260905131541 22 119 0.0 3.2 0.00 0.00 0.00 55 1007.2
20260905130041 22 135 0.0 1.6 0.00 0.00 0.00 55 1007.4
20260905124539 22 189 0.0 11.3 0.00 0.00 0.00 55 1007.5
20260905123043 22 137 1.6 11.3 0.00 0.00 0.00 54 1007.7
20260905121540 22 157 0.0 8.0 0.00 0.00 0.00 55 1007.8
20260905120036 22 141 3.2 20.9 0.00 0.00 0.00 54 1007.8
20260905114535 22 125 0.0 11.3 0.00 0.00 0.00 55 1007.9
20260905113033 22 154 0.0 16.1 0.00 0.00 0.00 54 1008.1
20260905111534 22 213 1.6 16.1 0.00 0.00 0.00 54 1008.1
20260905110031 22 129 0.0 9.7 0.00 0.00 0.00 55 1008.2
20260905104531 22 178 1.6 12.9 0.00 0.00 0.00 55 1008.2
20260905103028 22 135 1.6 14.5 0.00 0.00 0.00 55 1008.3
20260905101531 22 200 0.0 20.9 0.00 0.00 0.00 55 1008.4
20260905100055 22 137 1.6 17.7 0.00 0.00 0.00 56 1008.4
20260905094524 22 185 0.0 14.5 0.00 0.00 0.00 56 1008.5
20260905093023 22 166 0.0 12.9 0.00 0.00 0.00 56 1008.6
20260905091521 22 206 0.0 12.9 0.00 0.00 0.00 57 1008.5
20260905090017 22 146 0.0 11.3 0.00 0.00 0.00 60 1008.7
20260905084514 21 139 1.6 9.7 0.00 0.00 0.00 59 1008.7
20260905083010 20 155 0.0 8.0 0.00 0.00 0.00 62 1009.0
20260905081506 19 141 0.0 4.8 0.00 0.00 0.00 63 1009.2
20260905080003 18 206 0.0 1.6 0.00 0.00 0.00 66 1009.3
20260905074503 18 162 0.0 11.3 0.00 0.00 0.00 65 1009.2
20260905073101 18 161 0.0 8.0 0.00 0.00 0.00 65 1009.4
20260905071608 18 153 0.0 3.2 0.00 0.00 0.00 65 1009.7
20260905070059 18 168 0.0 1.6 0.00 0.00 0.00 66 1009.6
20260905064616 18 183 0.0 1.6 0.00 0.00 0.00 65 1009.7
20260905063056 18 169 0.0 3.2 0.00 0.00 0.00 64 1009.5
20260905061603 18 143 0.0 6.4 0.00 0.00 0.00 65 1009.7
20260905060052 18 170 0.0 8.0 0.00 0.00 0.00 67 1009.8
20260905054634 17 135 0.0 0.0 0.00 0.00 0.00 73 1010.0
20260905053046 16 140 0.0 0.0 0.00 0.00 0.00 76 1010.1
20260905051541 16 116 0.0 0.0 0.00 0.00 0.00 79 1010.2
20260905050040 15 116 0.0 0.0 0.00 0.00 0.00 82 1010.1